LAN714 SCEL-SBGR

Flight info

Callsign LAN714
Flight time 2h 45m
Altitude 39000
Route NEBEG7C NEBEG UL531 ESITO UT652 SIKOB UM400 SAVLU UZ121 BUXUK
Aircraft B77W/H-SDE1E2E3FGHIJ2J3J4J5M1RWXY/LB1D1

Departure

Time 2026-05-05 18:44
Airport Comodoro Arturo Merino Benítez International Airport (SCEL)

Arrival

Time 2026-05-05 21:29
Airport São Paulo/Guarulhos–Governor André Franco Montoro International Airport (SBGR)
Time Latitude Longitude Altitude Speed Heading
2026-05-05 18:22 -33.39888 -70.78988 1569 ft 0 kts 177°
2026-05-05 18:30 -33.39876 -70.78989 1569 ft 3 kts 177°
2026-05-05 18:30 -33.39860 -70.78990 1569 ft 2 kts 176°
2026-05-05 18:30 -33.39844 -70.78993 1569 ft 3 kts 140°
2026-05-05 18:30 -33.39835 -70.79009 1569 ft 3 kts 90°
2026-05-05 18:31 -33.39836 -70.79032 1569 ft 2 kts 86°
2026-05-05 18:31 -33.39837 -70.79038 1569 ft 0 kts 87°
2026-05-05 18:33 -33.39836 -70.79030 1569 ft 6 kts 87°
2026-05-05 18:34 -33.39834 -70.78963 1569 ft 8 kts 87°
2026-05-05 18:34 -33.39818 -70.78899 1569 ft 7 kts 39°
2026-05-05 18:34 -33.39780 -70.78875 1569 ft 7 kts 36°
2026-05-05 18:34 -33.39756 -70.78825 1569 ft 7 kts 69°
2026-05-05 18:35 -33.39717 -70.78783 1569 ft 8 kts 24°
2026-05-05 18:35 -33.39658 -70.78778 1569 ft 9 kts 359°
2026-05-05 18:35 -33.39579 -70.78781 1569 ft 15 kts 358°
2026-05-05 18:35 -33.39450 -70.78788 1569 ft 21 kts 357°
2026-05-05 18:36 -33.39287 -70.78797 1569 ft 26 kts 358°
2026-05-05 18:36 -33.39085 -70.78806 1569 ft 32 kts 358°
2026-05-05 18:36 -33.38866 -70.78819 1569 ft 31 kts 357°
2026-05-05 18:36 -33.38679 -70.78830 1570 ft 25 kts 357°
2026-05-05 18:37 -33.38510 -70.78839 1569 ft 23 kts 357°
2026-05-05 18:37 -33.38375 -70.78869 1569 ft 17 kts 324°
2026-05-05 18:37 -33.38356 -70.79008 1569 ft 18 kts 266°
2026-05-05 18:37 -33.38363 -70.79155 1569 ft 18 kts 268°
2026-05-05 18:38 -33.38368 -70.79303 1569 ft 18 kts 268°
2026-05-05 18:38 -33.38372 -70.79450 1569 ft 18 kts 268°
2026-05-05 18:38 -33.38378 -70.79595 1569 ft 18 kts 267°
2026-05-05 18:38 -33.38384 -70.79742 1569 ft 18 kts 267°
2026-05-05 18:39 -33.38391 -70.79888 1570 ft 17 kts 267°
2026-05-05 18:39 -33.38378 -70.80000 1570 ft 11 kts 322°
2026-05-05 18:39 -33.38299 -70.80011 1570 ft 12 kts 359°
2026-05-05 18:39 -33.38211 -70.80014 1570 ft 13 kts 358°
2026-05-05 18:40 -33.38124 -70.80021 1570 ft 11 kts 344°
2026-05-05 18:40 -33.38098 -70.80076 1570 ft 7 kts 275°
2026-05-05 18:40 -33.38072 -70.80118 1571 ft 7 kts 334°
2026-05-05 18:40 -33.38021 -70.80125 1571 ft 8 kts 359°
2026-05-05 18:41 -33.37957 -70.80128 1571 ft 12 kts 357°
2026-05-05 18:41 -33.37859 -70.80134 1571 ft 13 kts 357°
2026-05-05 18:41 -33.37749 -70.80140 1571 ft 18 kts 357°
2026-05-05 18:41 -33.37602 -70.80148 1571 ft 24 kts 357°
2026-05-05 18:42 -33.37418 -70.80157 1571 ft 28 kts 358°
2026-05-05 18:42 -33.37233 -70.80166 1572 ft 25 kts 358°
2026-05-05 18:42 -33.37080 -70.80176 1571 ft 21 kts 352°
2026-05-05 18:42 -33.37024 -70.80261 1574 ft 12 kts 248°
2026-05-05 18:43 -33.37086 -70.80328 1579 ft 12 kts 211°
2026-05-05 18:43 -33.37162 -70.80371 1579 ft 12 kts 192°
2026-05-05 18:43 -33.37250 -70.80371 1578 ft 16 kts 176°
2026-05-05 18:43 -33.37514 -70.80357 1579 ft 74 kts 177°
2026-05-05 18:44 -33.38296 -70.80314 1578 ft 148 kts 177°
2026-05-05 18:44 -33.39491 -70.80249 1711 ft 190 kts 176°
2026-05-05 18:44 -33.40822 -70.80161 2461 ft 193 kts 178°
2026-05-05 18:44 -33.42182 -70.80079 3242 ft 196 kts 178°
2026-05-05 18:45 -33.43612 -70.79999 3748 ft 215 kts 178°
2026-05-05 18:45 -33.45180 -70.79894 4219 ft 236 kts 178°
2026-05-05 18:45 -33.46877 -70.79813 4838 ft 252 kts 178°
2026-05-05 18:45 -33.48699 -70.79749 5341 ft 272 kts 179°
2026-05-05 18:46 -33.50602 -70.79658 6159 ft 278 kts 179°
2026-05-05 18:46 -33.52561 -70.79552 6970 ft 285 kts 178°
2026-05-05 18:46 -33.54569 -70.79414 7761 ft 293 kts 176°
2026-05-05 18:46 -33.56632 -70.79174 8467 ft 305 kts 175°
2026-05-05 18:47 -33.58781 -70.78895 9183 ft 315 kts 175°
2026-05-05 18:47 -33.60995 -70.78594 9929 ft 325 kts 175°
2026-05-05 18:47 -33.63272 -70.78287 10607 ft 336 kts 175°
2026-05-05 18:47 -33.65659 -70.77709 10865 ft 366 kts 158°
2026-05-05 18:48 -33.67835 -70.75961 11212 ft 387 kts 130°
2026-05-05 18:48 -33.69276 -70.73233 12033 ft 392 kts 111°
2026-05-05 18:48 -33.70321 -70.70216 12978 ft 399 kts 109°
2026-05-05 18:48 -33.71381 -70.67099 13983 ft 405 kts 108°
2026-05-05 18:49 -33.72290 -70.63852 14769 ft 416 kts 103°
2026-05-05 18:49 -33.73076 -70.60472 15698 ft 423 kts 102°
2026-05-05 18:49 -33.73837 -70.57011 16504 ft 433 kts 101°
2026-05-05 18:49 -33.74629 -70.53473 17333 ft 442 kts 102°
2026-05-05 18:50 -33.75459 -70.49881 18282 ft 449 kts 103°
2026-05-05 18:50 -33.76323 -70.46240 19107 ft 457 kts 103°
2026-05-05 18:50 -33.77211 -70.42553 19942 ft 463 kts 103°
2026-05-05 18:50 -33.78112 -70.38810 20737 ft 470 kts 104°
2026-05-05 18:51 -33.79027 -70.35005 21498 ft 477 kts 104°
2026-05-05 18:51 -33.79946 -70.31150 22315 ft 483 kts 103°
2026-05-05 18:51 -33.80659 -70.27186 23010 ft 487 kts 96°
2026-05-05 18:51 -33.81038 -70.23121 23722 ft 491 kts 90°
2026-05-05 18:52 -33.81076 -70.19063 24322 ft 494 kts 84°
2026-05-05 18:52 -33.80910 -70.14906 24881 ft 501 kts 83°
2026-05-05 18:52 -33.80726 -70.10691 25514 ft 507 kts 83°
2026-05-05 18:52 -33.80553 -70.06423 25998 ft 514 kts 84°
2026-05-05 18:53 -33.80403 -70.02125 26767 ft 515 kts 84°
2026-05-05 18:53 -33.80262 -69.97798 27394 ft 520 kts 84°
2026-05-05 18:53 -33.80116 -69.93416 27914 ft 528 kts 84°
2026-05-05 18:53 -33.79989 -69.88987 28486 ft 533 kts 83°
2026-05-05 18:54 -33.79507 -69.84581 28995 ft 532 kts 74°
2026-05-05 18:54 -33.78648 -69.80239 29499 ft 535 kts 71°
2026-05-05 18:54 -33.77732 -69.75886 29960 ft 540 kts 71°
2026-05-05 18:54 -33.76810 -69.71486 30416 ft 543 kts 71°
2026-05-05 18:55 -33.75912 -69.67119 30830 ft 546 kts 72°
2026-05-05 18:55 -33.75020 -69.62682 31308 ft 546 kts 72°
2026-05-05 18:55 -33.74133 -69.58226 31685 ft 551 kts 72°
2026-05-05 18:55 -33.73246 -69.53754 32377 ft 547 kts 72°
2026-05-05 18:56 -33.72383 -69.49361 33303 ft 529 kts 73°
2026-05-05 18:56 -33.71550 -69.45110 34303 ft 519 kts 72°
2026-05-05 18:56 -33.70714 -69.40873 34541 ft 525 kts 72°
2026-05-05 18:56 -33.69854 -69.36579 34590 ft 532 kts 72°
2026-05-05 18:57 -33.68985 -69.32246 34846 ft 535 kts 72°
2026-05-05 18:57 -33.68126 -69.27964 35261 ft 534 kts 71°
2026-05-05 18:57 -33.67256 -69.23629 35607 ft 535 kts 71°
2026-05-05 18:57 -33.66382 -69.19283 35886 ft 537 kts 71°
2026-05-05 18:58 -33.65498 -69.14900 36065 ft 542 kts 71°
2026-05-05 18:58 -33.64607 -69.10493 36312 ft 544 kts 71°
2026-05-05 18:58 -33.63714 -69.06073 36658 ft 545 kts 71°
2026-05-05 18:58 -33.62818 -69.01644 36811 ft 549 kts 71°
2026-05-05 18:59 -33.61003 -68.92707 36824 ft 549 kts 71°
2026-05-05 18:59 -33.59206 -68.83869 36838 ft 543 kts 71°
2026-05-05 19:00 -33.57401 -68.75051 36851 ft 544 kts 71°
2026-05-05 19:00 -33.55586 -68.66237 36853 ft 545 kts 71°
2026-05-05 19:01 -33.53763 -68.57406 36849 ft 546 kts 71°
2026-05-05 19:01 -33.51942 -68.48608 36838 ft 546 kts 71°
2026-05-05 19:02 -33.50107 -68.39779 36839 ft 546 kts 71°
2026-05-05 19:02 -33.48266 -68.30959 36842 ft 545 kts 71°
2026-05-05 19:03 -33.46420 -68.22148 36844 ft 545 kts 71°
2026-05-05 19:03 -33.44570 -68.13351 36840 ft 544 kts 71°
2026-05-05 19:04 -33.42714 -68.04558 36841 ft 544 kts 71°
2026-05-05 19:04 -33.40854 -67.95782 36840 ft 544 kts 70°
2026-05-05 19:05 -33.38998 -67.87057 36841 ft 546 kts 70°
2026-05-05 19:05 -33.37087 -67.78134 36853 ft 560 kts 71°
2026-05-05 19:06 -33.35128 -67.69000 36848 ft 572 kts 71°
2026-05-05 19:06 -33.33130 -67.59701 36843 ft 580 kts 71°
2026-05-05 19:07 -33.31455 -67.51928 36823 ft 582 kts 71°
2026-05-05 19:07 -33.29095 -67.41027 36827 ft 584 kts 71°
2026-05-05 19:08 -33.27049 -67.31621 36827 ft 584 kts 71°
2026-05-05 19:08 -33.24517 -67.22475 36819 ft 575 kts 60°
2026-05-05 19:09 -33.20997 -67.13961 36824 ft 570 kts 57°
2026-05-05 19:09 -33.17424 -67.05502 36820 ft 571 kts 57°
2026-05-05 19:10 -33.13911 -66.96991 36821 ft 571 kts 58°
2026-05-05 19:10 -33.11009 -66.89928 36817 ft 570 kts 58°
2026-05-05 19:11 -33.07503 -66.81440 36816 ft 570 kts 58°
2026-05-05 19:11 -33.03969 -66.72943 36823 ft 571 kts 58°
2026-05-05 19:12 -33.00455 -66.64520 36819 ft 571 kts 58°
2026-05-05 19:12 -32.96911 -66.56035 36807 ft 571 kts 58°
2026-05-05 19:13 -32.93359 -66.47545 36805 ft 572 kts 57°
2026-05-05 19:13 -32.89800 -66.39064 36831 ft 574 kts 57°
2026-05-05 19:14 -32.86217 -66.30551 36846 ft 576 kts 57°
2026-05-05 19:14 -32.82643 -66.22072 36863 ft 578 kts 57°
2026-05-05 19:15 -32.79036 -66.13533 36851 ft 578 kts 57°
2026-05-05 19:15 -32.75401 -66.04999 36862 ft 578 kts 57°
2026-05-05 19:16 -32.71707 -65.96519 36860 ft 577 kts 56°
2026-05-05 19:16 -32.68003 -65.88057 36854 ft 578 kts 57°
2026-05-05 19:17 -32.64298 -65.79582 36868 ft 578 kts 57°
2026-05-05 19:17 -32.60590 -65.71103 36871 ft 579 kts 57°
2026-05-05 19:18 -32.56899 -65.62680 36865 ft 579 kts 57°
2026-05-05 19:18 -32.53166 -65.54185 36861 ft 580 kts 57°
2026-05-05 19:19 -32.49431 -65.45708 36857 ft 581 kts 57°
2026-05-05 19:19 -32.45683 -65.37219 36862 ft 582 kts 57°
2026-05-05 19:20 -32.41922 -65.28722 36842 ft 583 kts 57°
2026-05-05 19:20 -32.38148 -65.20211 36875 ft 584 kts 57°
2026-05-05 19:21 -32.34410 -65.11666 36883 ft 586 kts 57°
2026-05-05 19:21 -32.30742 -65.03035 36893 ft 587 kts 58°
2026-05-05 19:22 -32.27073 -64.94399 36899 ft 588 kts 58°
2026-05-05 19:22 -32.23397 -64.85822 36903 ft 588 kts 58°
2026-05-05 19:23 -32.19688 -64.77207 36898 ft 588 kts 57°
2026-05-05 19:23 -32.15982 -64.68617 36904 ft 586 kts 57°
2026-05-05 19:24 -32.12284 -64.60069 36903 ft 584 kts 57°
2026-05-05 19:24 -32.08574 -64.51512 36914 ft 584 kts 57°
2026-05-05 19:25 -32.04892 -64.43039 36896 ft 585 kts 57°
2026-05-05 19:25 -32.01178 -64.34512 36876 ft 585 kts 57°
2026-05-05 19:26 -31.97456 -64.25984 36889 ft 586 kts 57°
2026-05-05 19:26 -31.93715 -64.17438 36887 ft 588 kts 57°
2026-05-05 19:27 -31.89959 -64.08875 36885 ft 589 kts 57°
2026-05-05 19:27 -31.86189 -64.00299 36870 ft 590 kts 57°
2026-05-05 19:28 -31.82407 -63.91713 36880 ft 591 kts 57°
2026-05-05 19:28 -31.78612 -63.83116 36881 ft 592 kts 57°
2026-05-05 19:29 -31.74759 -63.74581 36880 ft 591 kts 56°
2026-05-05 19:29 -31.70795 -63.66193 36870 ft 590 kts 55°
2026-05-05 19:30 -31.66795 -63.57761 36874 ft 591 kts 55°
2026-05-05 19:30 -31.62815 -63.49313 36875 ft 591 kts 56°
2026-05-05 19:31 -31.58837 -63.40863 36864 ft 590 kts 56°
2026-05-05 19:31 -31.54865 -63.32449 36884 ft 590 kts 56°
2026-05-05 19:32 -31.50910 -63.24093 36853 ft 589 kts 55°
2026-05-05 19:32 -31.46925 -63.15696 36872 ft 589 kts 55°
2026-05-05 19:33 -31.43016 -63.07240 36872 ft 591 kts 57°
2026-05-05 19:33 -31.39202 -62.98697 36881 ft 592 kts 57°
2026-05-05 19:34 -31.35371 -62.90160 36880 ft 592 kts 57°
2026-05-05 19:35 -31.29593 -62.77437 36873 ft 592 kts 57°
2026-05-05 19:35 -31.25716 -62.68922 36882 ft 593 kts 57°
2026-05-05 19:36 -31.21830 -62.60410 36879 ft 593 kts 57°
2026-05-05 19:36 -31.17913 -62.51929 36857 ft 592 kts 56°
2026-05-05 19:37 -31.13988 -62.43463 36870 ft 592 kts 56°
2026-05-05 19:37 -31.10087 -62.35050 36875 ft 592 kts 56°
2026-05-05 19:38 -31.06161 -62.26595 36871 ft 592 kts 56°
2026-05-05 19:38 -31.02230 -62.18147 36831 ft 593 kts 57°
2026-05-05 19:39 -30.98300 -62.09686 36862 ft 593 kts 56°
2026-05-05 19:39 -30.94365 -62.01222 36866 ft 595 kts 56°
2026-05-05 19:40 -30.90442 -61.92799 36860 ft 596 kts 56°
2026-05-05 19:40 -30.86484 -61.84319 36852 ft 596 kts 56°
2026-05-05 19:41 -30.82502 -61.75812 36859 ft 597 kts 56°
2026-05-05 19:41 -30.78522 -61.67326 36851 ft 597 kts 56°
2026-05-05 19:42 -30.74563 -61.58901 36854 ft 597 kts 56°
2026-05-05 19:42 -30.70573 -61.50429 36848 ft 597 kts 56°
2026-05-05 19:43 -30.66553 -61.41975 36854 ft 596 kts 56°
2026-05-05 19:43 -30.62502 -61.33571 36848 ft 596 kts 55°
2026-05-05 19:44 -30.58472 -61.25226 36851 ft 595 kts 56°
2026-05-05 19:44 -30.54423 -61.16837 36855 ft 596 kts 56°
2026-05-05 19:45 -30.50374 -61.08458 36859 ft 596 kts 56°
2026-05-05 19:45 -30.46315 -61.00079 36851 ft 596 kts 56°
2026-05-05 19:46 -30.42244 -60.91694 36857 ft 596 kts 56°
2026-05-05 19:46 -30.38168 -60.83316 36861 ft 597 kts 56°
2026-05-05 19:47 -30.34108 -60.74990 36855 ft 597 kts 56°
2026-05-05 19:47 -30.30018 -60.66618 36875 ft 597 kts 56°
2026-05-05 19:48 -30.25924 -60.58257 36873 ft 597 kts 56°
2026-05-05 19:48 -30.21822 -60.49895 36862 ft 597 kts 56°
2026-05-05 19:49 -30.17798 -60.41542 36867 ft 599 kts 59°
2026-05-05 19:49 -30.14591 -60.32602 36880 ft 604 kts 67°
2026-05-05 19:50 -30.11763 -60.23435 36880 ft 605 kts 68°
2026-05-05 19:50 -30.08904 -60.14292 36874 ft 605 kts 67°
2026-05-05 19:51 -30.05985 -60.05176 36881 ft 605 kts 67°
2026-05-05 19:51 -30.03043 -59.96074 36885 ft 605 kts 67°
2026-05-05 19:52 -30.00098 -59.86973 36881 ft 606 kts 67°
2026-05-05 19:52 -29.97151 -59.77869 36889 ft 606 kts 67°
2026-05-05 19:53 -29.94194 -59.68757 36894 ft 606 kts 67°
2026-05-05 19:53 -29.91252 -59.59716 36890 ft 606 kts 67°
2026-05-05 19:54 -29.88285 -59.50626 36887 ft 606 kts 67°
2026-05-05 19:54 -29.85312 -59.41539 36882 ft 606 kts 67°
2026-05-05 19:55 -29.82332 -59.32457 36900 ft 606 kts 67°
2026-05-05 19:55 -29.79341 -59.23364 36904 ft 607 kts 67°
2026-05-05 19:56 -29.76344 -59.14279 36906 ft 607 kts 67°
2026-05-05 19:56 -29.73843 -59.06715 36908 ft 608 kts 67°
2026-05-05 19:57 -29.70828 -58.97618 36906 ft 608 kts 67°
2026-05-05 19:57 -29.67812 -58.88538 36913 ft 607 kts 67°
2026-05-05 19:58 -29.64868 -58.79434 36918 ft 608 kts 68°
2026-05-05 19:58 -29.61988 -58.70293 36922 ft 607 kts 68°
2026-05-05 19:59 -29.59112 -58.61216 36918 ft 607 kts 68°
2026-05-05 19:59 -29.56194 -58.52094 36921 ft 607 kts 68°
2026-05-05 20:00 -29.53268 -58.42991 36912 ft 607 kts 68°
2026-05-05 20:00 -29.50339 -58.33894 36937 ft 606 kts 68°
2026-05-05 20:01 -29.47406 -58.24806 36941 ft 606 kts 68°
2026-05-05 20:01 -29.44472 -58.15733 36930 ft 606 kts 68°
2026-05-05 20:02 -29.41552 -58.06735 36936 ft 606 kts 68°
2026-05-05 20:02 -29.38343 -57.97817 36941 ft 604 kts 64°
2026-05-05 20:03 -29.34962 -57.88990 36936 ft 604 kts 64°
2026-05-05 20:03 -29.31624 -57.80122 36942 ft 604 kts 65°
2026-05-05 20:04 -29.28337 -57.71259 36943 ft 604 kts 65°
2026-05-05 20:04 -29.25039 -57.62403 36944 ft 604 kts 65°
2026-05-05 20:05 -29.21856 -57.53549 36948 ft 605 kts 67°
2026-05-05 20:05 -29.18796 -57.44569 36952 ft 605 kts 68°
2026-05-05 20:06 -29.15727 -57.35586 36944 ft 605 kts 67°
2026-05-05 20:06 -29.12626 -57.26649 36960 ft 604 kts 67°
2026-05-05 20:07 -29.09501 -57.17707 36960 ft 604 kts 67°
2026-05-05 20:07 -29.06393 -57.08830 36961 ft 604 kts 67°
2026-05-05 20:08 -29.03269 -56.99915 36962 ft 604 kts 67°
2026-05-05 20:08 -29.00139 -56.91005 36967 ft 604 kts 67°
2026-05-05 20:09 -28.97002 -56.82097 36972 ft 603 kts 67°
2026-05-05 20:09 -28.93882 -56.73261 36965 ft 603 kts 67°
2026-05-05 20:10 -28.90738 -56.64376 36968 ft 603 kts 67°
2026-05-05 20:10 -28.87587 -56.55492 36972 ft 603 kts 67°
2026-05-05 20:11 -28.84425 -56.46627 36976 ft 603 kts 67°
2026-05-05 20:11 -28.81247 -56.37774 36975 ft 603 kts 67°
2026-05-05 20:12 -28.78068 -56.28929 36978 ft 603 kts 67°
2026-05-05 20:12 -28.74910 -56.20153 36977 ft 602 kts 67°
2026-05-05 20:13 -28.71735 -56.11316 36948 ft 602 kts 68°
2026-05-05 20:13 -28.68662 -56.02451 36984 ft 600 kts 68°
2026-05-05 20:14 -28.65623 -55.93582 36975 ft 600 kts 68°
2026-05-05 20:14 -28.62575 -55.84785 36981 ft 600 kts 68°
2026-05-05 20:15 -28.59493 -55.75948 36990 ft 600 kts 68°
2026-05-05 20:15 -28.56410 -55.67118 36993 ft 600 kts 68°
2026-05-05 20:16 -28.53334 -55.58354 36984 ft 600 kts 68°
2026-05-05 20:16 -28.50220 -55.49550 37000 ft 600 kts 68°
2026-05-05 20:17 -28.47100 -55.40749 36987 ft 600 kts 68°
2026-05-05 20:17 -28.43980 -55.31956 37003 ft 600 kts 68°
2026-05-05 20:18 -28.40848 -55.23150 37002 ft 600 kts 68°
2026-05-05 20:18 -28.37718 -55.14369 37015 ft 600 kts 68°
2026-05-05 20:19 -28.34581 -55.05591 37006 ft 600 kts 68°
2026-05-05 20:19 -28.31443 -54.96830 37011 ft 600 kts 68°
2026-05-05 20:20 -28.28317 -54.88122 37008 ft 599 kts 68°
2026-05-05 20:20 -28.25168 -54.79369 37017 ft 599 kts 68°
2026-05-05 20:21 -28.22015 -54.70626 37027 ft 598 kts 68°
2026-05-05 20:21 -28.18865 -54.61900 37029 ft 598 kts 68°
2026-05-05 20:22 -28.15708 -54.53164 37028 ft 598 kts 68°
2026-05-05 20:22 -28.12551 -54.44449 37032 ft 597 kts 68°
2026-05-05 20:23 -28.09389 -54.35741 37031 ft 597 kts 68°
2026-05-05 20:23 -28.06225 -54.27049 37039 ft 597 kts 68°
2026-05-05 20:24 -28.03076 -54.18418 37044 ft 596 kts 68°
2026-05-05 20:24 -27.99906 -54.09747 37050 ft 596 kts 68°
2026-05-05 20:25 -27.96728 -54.01077 37052 ft 596 kts 68°
2026-05-05 20:25 -27.93548 -53.92421 37064 ft 595 kts 68°
2026-05-05 20:26 -27.90365 -53.83774 37066 ft 595 kts 68°
2026-05-05 20:26 -27.87197 -53.75190 37064 ft 595 kts 68°
2026-05-05 20:27 -27.84005 -53.66560 37071 ft 595 kts 68°
2026-05-05 20:27 -27.80807 -53.57934 37073 ft 595 kts 68°
2026-05-05 20:28 -27.77605 -53.49315 37075 ft 594 kts 68°
2026-05-05 20:28 -27.74403 -53.40716 37078 ft 594 kts 68°
2026-05-05 20:29 -27.71188 -53.32100 37079 ft 594 kts 68°
2026-05-05 20:29 -27.67991 -53.23553 37079 ft 594 kts 68°
2026-05-05 20:30 -27.64772 -53.14967 37077 ft 593 kts 68°
2026-05-05 20:30 -27.61555 -53.06398 37085 ft 593 kts 68°
2026-05-05 20:31 -27.58334 -52.97842 37084 ft 592 kts 68°
2026-05-05 20:31 -27.55111 -52.89286 37091 ft 592 kts 68°
2026-05-05 20:32 -27.51893 -52.80759 37088 ft 591 kts 68°
2026-05-05 20:32 -27.48666 -52.72249 37095 ft 590 kts 68°
2026-05-05 20:33 -27.45455 -52.63800 37110 ft 589 kts 69°
2026-05-05 20:33 -27.42234 -52.55319 37114 ft 589 kts 68°
2026-05-05 20:34 -27.39001 -52.46864 37117 ft 587 kts 68°
2026-05-05 20:34 -27.35770 -52.38424 37113 ft 587 kts 68°
2026-05-05 20:35 -27.32534 -52.29972 37106 ft 588 kts 68°
2026-05-05 20:35 -27.29292 -52.21529 37114 ft 588 kts 68°
2026-05-05 20:36 -27.26065 -52.13148 37113 ft 588 kts 68°
2026-05-05 20:36 -27.22809 -52.04700 37111 ft 587 kts 68°
2026-05-05 20:37 -27.19570 -51.96299 37117 ft 585 kts 68°
2026-05-05 20:37 -27.16339 -51.87905 37128 ft 585 kts 68°
2026-05-05 20:38 -27.13080 -51.79522 37138 ft 585 kts 68°
2026-05-05 20:38 -27.09814 -51.71175 37140 ft 583 kts 68°
2026-05-05 20:39 -27.06571 -51.62887 37140 ft 582 kts 68°
2026-05-05 20:39 -27.03316 -51.54576 37133 ft 581 kts 68°
2026-05-05 20:40 -27.00061 -51.46284 37149 ft 580 kts 68°
2026-05-05 20:40 -26.96806 -51.38014 37145 ft 580 kts 68°
2026-05-05 20:41 -26.93551 -51.29753 37162 ft 578 kts 68°
2026-05-05 20:41 -26.90298 -51.21519 37152 ft 577 kts 68°
2026-05-05 20:42 -26.87594 -51.14680 37149 ft 577 kts 68°
2026-05-05 20:42 -26.84336 -51.06461 37161 ft 577 kts 68°
2026-05-05 20:43 -26.81070 -50.98242 37160 ft 577 kts 68°
2026-05-05 20:43 -26.77801 -50.90026 37175 ft 577 kts 68°
2026-05-05 20:44 -26.74525 -50.81812 37171 ft 578 kts 68°
2026-05-05 20:44 -26.71252 -50.73667 37172 ft 577 kts 68°
2026-05-05 20:45 -26.66306 -50.61403 37184 ft 576 kts 68°
2026-05-05 20:45 -26.63009 -50.53232 37176 ft 575 kts 68°
2026-05-05 20:46 -26.59782 -50.45058 37174 ft 574 kts 68°
2026-05-05 20:46 -26.56577 -50.36895 37170 ft 572 kts 68°
2026-05-05 20:47 -26.53322 -50.28792 37166 ft 572 kts 67°
2026-05-05 20:47 -26.50021 -50.20721 37169 ft 571 kts 67°
2026-05-05 20:48 -26.46752 -50.12720 37177 ft 569 kts 67°
2026-05-05 20:48 -26.43465 -50.04668 37165 ft 569 kts 67°
2026-05-05 20:49 -26.40184 -49.96636 37172 ft 568 kts 67°
2026-05-05 20:49 -26.36896 -49.88606 37171 ft 568 kts 67°
2026-05-05 20:50 -26.33607 -49.80587 37164 ft 567 kts 67°
2026-05-05 20:50 -26.30382 -49.72627 37181 ft 566 kts 68°
2026-05-05 20:51 -26.27155 -49.64619 37178 ft 566 kts 68°
2026-05-05 20:51 -26.23918 -49.56621 37179 ft 566 kts 68°
2026-05-05 20:52 -26.20656 -49.48647 37179 ft 565 kts 67°
2026-05-05 20:52 -26.17375 -49.40711 37177 ft 564 kts 67°
2026-05-05 20:53 -26.14097 -49.32780 37178 ft 563 kts 66°
2026-05-05 20:53 -26.12152 -49.28993 37176 ft 564 kts 55°
2026-05-05 20:53 -26.09639 -49.25637 37182 ft 564 kts 45°
2026-05-05 20:54 -26.03519 -49.20359 37181 ft 560 kts 28°
2026-05-05 20:54 -25.96718 -49.16113 37173 ft 561 kts 27°
2026-05-05 20:55 -25.89929 -49.11828 37176 ft 561 kts 28°
2026-05-05 20:55 -25.83181 -49.07443 37184 ft 562 kts 28°
2026-05-05 20:56 -25.76438 -49.03054 37190 ft 562 kts 28°
2026-05-05 20:56 -25.69697 -48.98641 37203 ft 562 kts 29°
2026-05-05 20:57 -25.62994 -48.94152 37204 ft 563 kts 29°
2026-05-05 20:57 -25.56339 -48.89704 37209 ft 563 kts 29°
2026-05-05 20:58 -25.49623 -48.85246 37163 ft 563 kts 29°
2026-05-05 20:58 -25.42849 -48.80885 37166 ft 562 kts 26°
2026-05-05 20:59 -25.35962 -48.76784 37168 ft 562 kts 26°
2026-05-05 20:59 -25.29082 -48.72647 37170 ft 563 kts 27°
2026-05-05 21:00 -25.22206 -48.68469 37169 ft 564 kts 26°
2026-05-05 21:00 -25.15303 -48.64321 37160 ft 565 kts 26°
2026-05-05 21:01 -25.08442 -48.60206 37164 ft 564 kts 26°
2026-05-05 21:01 -25.01543 -48.56067 37163 ft 564 kts 26°
2026-05-05 21:02 -24.94649 -48.51921 37163 ft 563 kts 27°
2026-05-05 21:02 -24.87781 -48.47766 37151 ft 563 kts 27°
2026-05-05 21:03 -24.80889 -48.43598 36865 ft 566 kts 27°
2026-05-05 21:03 -24.77503 -48.41553 36630 ft 560 kts 27°
2026-05-05 21:03 -24.74098 -48.39500 36288 ft 554 kts 27°
2026-05-05 21:04 -24.70733 -48.37470 35782 ft 549 kts 27°
2026-05-05 21:04 -24.67407 -48.35467 35300 ft 541 kts 26°
2026-05-05 21:04 -24.64121 -48.33490 34839 ft 535 kts 26°
2026-05-05 21:04 -24.60872 -48.31538 34350 ft 529 kts 27°
2026-05-05 21:05 -24.57647 -48.29599 33751 ft 524 kts 27°
2026-05-05 21:05 -24.54454 -48.27682 33103 ft 521 kts 27°
2026-05-05 21:05 -24.51324 -48.25804 32473 ft 517 kts 27°
2026-05-05 21:05 -24.48165 -48.23917 31714 ft 497 kts 27°
2026-05-05 21:06 -24.45220 -48.22167 30746 ft 482 kts 27°
2026-05-05 21:06 -24.42222 -48.20395 29834 ft 494 kts 27°
2026-05-05 21:06 -24.39181 -48.18599 28782 ft 499 kts 27°
2026-05-05 21:06 -24.36107 -48.16783 27777 ft 501 kts 27°
2026-05-05 21:07 -24.33027 -48.14963 26780 ft 503 kts 27°
2026-05-05 21:07 -24.29945 -48.13139 25838 ft 503 kts 27°
2026-05-05 21:07 -24.26866 -48.11317 24902 ft 502 kts 27°
2026-05-05 21:07 -24.23790 -48.09498 24036 ft 501 kts 27°
2026-05-05 21:08 -24.20728 -48.07688 23042 ft 499 kts 27°
2026-05-05 21:08 -24.17718 -48.05910 21983 ft 473 kts 27°
2026-05-05 21:08 -24.14952 -48.04274 20952 ft 432 kts 27°
2026-05-05 21:08 -24.12392 -48.02762 20055 ft 414 kts 27°
2026-05-05 21:09 -24.09862 -48.01271 19702 ft 408 kts 27°
2026-05-05 21:09 -24.07402 -47.99822 19611 ft 396 kts 28°
2026-05-05 21:09 -24.04981 -47.98397 19510 ft 396 kts 28°
2026-05-05 21:09 -24.02565 -47.96975 19390 ft 402 kts 28°
2026-05-05 21:10 -24.00090 -47.95519 19218 ft 405 kts 28°
2026-05-05 21:10 -23.97748 -47.93817 19010 ft 405 kts 43°
2026-05-05 21:10 -23.95970 -47.91444 18831 ft 402 kts 59°
2026-05-05 21:10 -23.94728 -47.88711 18620 ft 401 kts 69°
2026-05-05 21:11 -23.93697 -47.85882 18402 ft 400 kts 69°
2026-05-05 21:11 -23.92683 -47.83052 18143 ft 399 kts 70°
2026-05-05 21:11 -23.91675 -47.80231 17892 ft 397 kts 70°
2026-05-05 21:11 -23.90666 -47.77421 17622 ft 395 kts 69°
2026-05-05 21:12 -23.89664 -47.74646 17249 ft 389 kts 69°
2026-05-05 21:12 -23.88686 -47.71954 16871 ft 383 kts 69°
2026-05-05 21:12 -23.87705 -47.69267 16503 ft 377 kts 69°
2026-05-05 21:12 -23.86736 -47.66623 16132 ft 372 kts 69°
2026-05-05 21:13 -23.85781 -47.64018 15774 ft 367 kts 69°
2026-05-05 21:13 -23.84834 -47.61440 15411 ft 364 kts 69°
2026-05-05 21:13 -23.83895 -47.58885 15095 ft 359 kts 69°
2026-05-05 21:13 -23.82975 -47.56384 14896 ft 351 kts 69°
2026-05-05 21:14 -23.82071 -47.53928 14651 ft 346 kts 68°
2026-05-05 21:14 -23.81175 -47.51495 14350 ft 344 kts 68°
2026-05-05 21:14 -23.80286 -47.49082 14051 ft 341 kts 68°
2026-05-05 21:14 -23.79407 -47.46698 13717 ft 337 kts 68°
2026-05-05 21:15 -23.78536 -47.44338 13392 ft 333 kts 68°
2026-05-05 21:15 -23.77672 -47.41999 13058 ft 331 kts 68°
2026-05-05 21:15 -23.76816 -47.39681 12725 ft 328 kts 68°
2026-05-05 21:15 -23.75964 -47.37377 12399 ft 326 kts 68°
2026-05-05 21:16 -23.75119 -47.35091 12093 ft 323 kts 68°
2026-05-05 21:16 -23.74291 -47.32850 11780 ft 321 kts 68°
2026-05-05 21:16 -23.73446 -47.30569 11461 ft 318 kts 68°
2026-05-05 21:16 -23.72622 -47.28344 11148 ft 315 kts 68°
2026-05-05 21:17 -23.71805 -47.26139 10842 ft 311 kts 68°
2026-05-05 21:17 -23.71009 -47.23991 10538 ft 308 kts 68°
2026-05-05 21:17 -23.70207 -47.21829 10235 ft 305 kts 68°
2026-05-05 21:17 -23.69414 -47.19691 9908 ft 303 kts 68°
2026-05-05 21:18 -23.68627 -47.17571 9583 ft 300 kts 68°
2026-05-05 21:18 -23.67846 -47.15470 9256 ft 297 kts 68°
2026-05-05 21:18 -23.67071 -47.13383 8934 ft 295 kts 68°
2026-05-05 21:18 -23.66301 -47.11312 8581 ft 293 kts 68°
2026-05-05 21:19 -23.65532 -47.09244 8138 ft 296 kts 69°
2026-05-05 21:19 -23.64762 -47.07174 7563 ft 297 kts 68°
2026-05-05 21:19 -23.64014 -47.05168 6947 ft 275 kts 69°
2026-05-05 21:19 -23.63317 -47.03300 6375 ft 257 kts 69°
2026-05-05 21:20 -23.62654 -47.01520 6147 ft 249 kts 69°
2026-05-05 21:20 -23.62012 -46.99797 6046 ft 243 kts 69°
2026-05-05 21:20 -23.61369 -46.98071 5963 ft 245 kts 69°
2026-05-05 21:20 -23.60731 -46.96360 5950 ft 242 kts 70°
2026-05-05 21:21 -23.60100 -46.94668 5947 ft 241 kts 69°
2026-05-05 21:21 -23.59468 -46.92975 5962 ft 242 kts 69°
2026-05-05 21:21 -23.58832 -46.91272 5962 ft 242 kts 69°
2026-05-05 21:21 -23.58197 -46.89572 5950 ft 241 kts 69°
2026-05-05 21:22 -23.57577 -46.87913 5983 ft 234 kts 70°
2026-05-05 21:22 -23.56965 -46.86275 5999 ft 232 kts 69°
2026-05-05 21:22 -23.56357 -46.84648 5997 ft 230 kts 69°
2026-05-05 21:22 -23.55753 -46.83038 5995 ft 230 kts 69°
2026-05-05 21:23 -23.55149 -46.81421 6007 ft 232 kts 69°
2026-05-05 21:23 -23.54537 -46.79788 6001 ft 232 kts 69°
2026-05-05 21:23 -23.53935 -46.78182 5976 ft 231 kts 69°
2026-05-05 21:23 -23.53324 -46.76550 5735 ft 234 kts 69°
2026-05-05 21:24 -23.52709 -46.74907 5412 ft 234 kts 69°
2026-05-05 21:24 -23.52103 -46.73293 5114 ft 227 kts 69°
2026-05-05 21:24 -23.51516 -46.71727 4867 ft 218 kts 69°
2026-05-05 21:24 -23.50949 -46.70219 4659 ft 212 kts 70°
2026-05-05 21:25 -23.50390 -46.68730 4456 ft 213 kts 69°
2026-05-05 21:25 -23.49826 -46.67225 4267 ft 216 kts 69°
2026-05-05 21:25 -23.49261 -46.65721 4119 ft 209 kts 69°
2026-05-05 21:25 -23.48727 -46.64300 4036 ft 196 kts 70°
2026-05-05 21:26 -23.48223 -46.62955 4007 ft 191 kts 70°
2026-05-05 21:26 -23.47723 -46.61627 4024 ft 191 kts 70°
2026-05-05 21:26 -23.47227 -46.60311 3985 ft 183 kts 70°
2026-05-05 21:26 -23.46763 -46.59079 3962 ft 171 kts 70°
2026-05-05 21:27 -23.46380 -46.57913 3968 ft 157 kts 75°
2026-05-05 21:27 -23.46077 -46.56820 3958 ft 145 kts 76°
2026-05-05 21:27 -23.45787 -46.55743 3805 ft 151 kts 76°
2026-05-05 21:27 -23.45595 -46.55035 3670 ft 144 kts 76°
2026-05-05 21:28 -23.45312 -46.53987 3492 ft 145 kts 75°
2026-05-05 21:28 -23.45028 -46.52940 3308 ft 145 kts 76°
2026-05-05 21:28 -23.44745 -46.51888 3118 ft 145 kts 75°
2026-05-05 21:28 -23.44459 -46.50837 2928 ft 146 kts 74°
2026-05-05 21:29 -23.44169 -46.49774 2709 ft 146 kts 74°
2026-05-05 21:29 -23.43886 -46.48718 2496 ft 143 kts 73°
2026-05-05 21:29 -23.43617 -46.47724 2470 ft 117 kts 73°
2026-05-05 21:29 -23.43441 -46.47081 2471 ft 49 kts 69°
2026-05-05 21:30 -23.43274 -46.46836 2474 ft 30 kts 43°
2026-05-05 21:30 -23.43173 -46.46739 2473 ft 10 kts 34°
2026-05-05 21:30 -23.43148 -46.46724 2473 ft 0 kts 22°
2026-05-05 21:32 -23.43141 -46.46722 2472 ft 5 kts 18°
2026-05-05 21:32 -23.43060 -46.46730 2470 ft 18 kts 346°
2026-05-05 21:32 -23.42943 -46.46766 2474 ft 15 kts 344°
2026-05-05 21:33 -23.42847 -46.46796 2472 ft 13 kts 343°
2026-05-05 21:33 -23.42798 -46.46818 2473 ft 6 kts 324°
2026-05-05 21:33 -23.42779 -46.46861 2468 ft 7 kts 276°
2026-05-05 21:33 -23.42790 -46.46925 2468 ft 10 kts 253°
2026-05-05 21:34 -23.42813 -46.47006 2469 ft 13 kts 253°
2026-05-05 21:34 -23.42825 -46.47100 2466 ft 11 kts 286°
2026-05-05 21:34 -23.42764 -46.47145 2470 ft 10 kts 339°
2026-05-05 21:34 -23.42730 -46.47190 2469 ft 8 kts 277°
2026-05-05 21:35 -23.42738 -46.47243 2471 ft 5 kts 254°
2026-05-05 21:35 -23.42743 -46.47261 2470 ft 1 kts 254°
2026-05-05 21:35 -23.42743 -46.47262 2470 ft 0 kts 254°